�������l�o���
Date,Time,MP-1(��Sv/h),MP-2(��Sv/h),MP-3(��Sv/h),MP-4(��Sv/h),MP-5(��Sv/h),MP-6(��Sv/h),MP-7(��Sv/h),MP-8(��Sv/h),����,����(m/s),���J
2019/06/12,00:00,0.729,1.043,0.723,1.313,0.952,0.425,0.741,0.705,�k��,4.5,�L
2019/06/12,00:10,0.731,1.044,0.721,1.311,0.952,0.423,0.741,0.706,�k�k��,5.2,�L
2019/06/12,00:20,0.732,1.044,0.723,1.312,0.951,0.425,0.741,0.707,�k�k��,5.4,�L
2019/06/12,00:30,0.730,1.043,0.723,1.310,0.951,0.425,0.740,0.705,�k�k��,5.7,�L
2019/06/12,00:40,0.731,1.042,0.722,1.311,0.949,0.424,0.739,0.707,�k�k��,5.6,�L
2019/06/12,00:50,0.728,1.043,0.721,1.309,0.951,0.424,0.740,0.705,�k�k��,6.0,�L
2019/06/12,01:00,0.729,1.041,0.721,1.310,0.950,0.426,0.739,0.704,�k�k��,6.0,�L
2019/06/12,01:10,0.728,1.041,0.722,1.311,0.950,0.425,0.739,0.705,�k��,5.6,�L
2019/06/12,01:20,0.730,1.039,0.721,1.307,0.948,0.424,0.737,0.704,�k��,5.6,�L
2019/06/12,01:30,0.726,1.041,0.720,1.308,0.949,0.423,0.738,0.705,�k�k��,6.0,�L
2019/06/12,01:40,0.726,1.038,0.720,1.308,0.948,0.425,0.740,0.705,�k�k��,4.6,�L
2019/06/12,01:50,0.727,1.036,0.720,1.307,0.948,0.426,0.738,0.704,�k�k��,5.4,�L
2019/06/12,02:00,0.726,1.037,0.718,1.308,0.947,0.423,0.735,0.705,�k��,4.5,�L
2019/06/12,02:10,0.726,1.037,0.720,1.309,0.947,0.424,0.737,0.704,�k�k��,5.4,�L
2019/06/12,02:20,0.727,1.038,0.717,1.306,0.947,0.424,0.737,0.703,�k�k��,5.7,�L
2019/06/12,02:30,0.727,1.034,0.718,1.304,0.946,0.424,0.737,0.703,�k�k��,6.5,�L
2019/06/12,02:40,0.725,1.033,0.717,1.305,0.944,0.425,0.736,0.703,�k�k��,6.6,�L
2019/06/12,02:50,0.725,1.034,0.716,1.301,0.946,0.423,0.736,0.702,�k�k��,6.5,�L
2019/06/12,03:00,0.727,1.034,0.718,1.304,0.944,0.424,0.736,0.705,�k�k��,6.6,�L
2019/06/12,03:10,0.723,1.031,0.718,1.304,0.945,0.422,0.737,0.702,�k�k��,6.7,�L
2019/06/12,03:20,0.725,1.034,0.718,1.302,0.945,0.420,0.736,0.703,�k�k��,6.8,�L
2019/06/12,03:30,0.724,1.033,0.717,1.304,0.945,0.422,0.737,0.703,�k�k��,6.8,��
2019/06/12,03:40,0.723,1.034,0.717,1.303,0.945,0.423,0.735,0.703,�k�k��,7.0,��
2019/06/12,03:50,0.725,1.034,0.716,1.304,0.946,0.423,0.736,0.704,�k�k��,6.4,��
2019/06/12,04:00,0.722,1.031,0.718,1.304,0.943,0.423,0.738,0.703,�k�k��,7.7,��
2019/06/12,04:10,0.723,1.031,0.717,1.304,0.944,0.422,0.736,0.704,�k�k��,7.1,��
2019/06/12,04:20,0.722,1.034,0.716,1.304,0.945,0.422,0.737,0.704,�k�k��,7.5,��
2019/06/12,04:30,0.723,1.034,0.718,1.305,0.946,0.422,0.738,0.702,�k�k��,7.3,��
2019/06/12,04:40,0.723,1.033,0.717,1.306,0.945,0.422,0.736,0.703,�k�k��,7.1,��
2019/06/12,04:50,0.725,1.035,0.719,1.305,0.947,0.422,0.737,0.704,�k�k��,6.5,��
2019/06/12,05:00,0.723,1.032,0.716,1.303,0.944,0.423,0.737,0.705,�k��,5.9,��
2019/06/12,05:10,0.724,1.034,0.718,1.303,0.942,0.422,0.737,0.702,�k�k��,7.1,��
2019/06/12,05:20,0.724,1.035,0.717,1.305,0.945,0.422,0.737,0.704,�k�k��,7.4,��
2019/06/12,05:30,0.723,1.034,0.719,1.304,0.944,0.422,0.738,0.704,�k�k��,7.1,��
2019/06/12,05:40,0.722,1.035,0.718,1.306,0.946,0.424,0.738,0.704,�k�k��,6.0,��
2019/06/12,05:50,0.723,1.034,0.719,1.306,0.946,0.423,0.738,0.702,�k�k��,6.4,��
2019/06/12,06:00,0.724,1.035,0.717,1.305,0.946,0.421,0.738,0.705,�k�k��,6.3,��
2019/06/12,06:10,0.724,1.036,0.717,1.305,0.946,0.422,0.739,0.703,�k�k��,6.5,��
2019/06/12,06:20,0.725,1.035,0.719,1.304,0.946,0.421,0.739,0.704,�k�k��,6.6,��
2019/06/12,06:30,0.725,1.035,0.720,1.304,0.947,0.424,0.739,0.704,�k�k��,5.4,��
2019/06/12,06:40,0.725,1.036,0.719,1.307,0.949,0.422,0.740,0.704,�k�k��,4.6,��
2019/06/12,06:50,0.724,1.038,0.719,1.306,0.947,0.422,0.740,0.705,�k�k��,3.5,��
2019/06/12,07:00,0.726,1.036,0.720,1.306,0.947,0.423,0.737,0.705,�k�k��,4.5,��
2019/06/12,07:10,0.726,1.036,0.720,1.307,0.946,0.422,0.738,0.705,�k�k��,5.2,��
2019/06/12,07:20,0.725,1.035,0.721,1.306,0.947,0.422,0.739,0.705,�k�k��,4.6,��
2019/06/12,07:30,0.725,1.032,0.721,1.309,0.947,0.422,0.739,0.706,�k�k��,5.4,��
2019/06/12,07:40,0.728,1.032,0.721,1.309,0.947,0.422,0.739,0.703,�k�k��,6.0,��
2019/06/12,07:50,0.727,1.032,0.719,1.309,0.947,0.422,0.741,0.704,�k�k��,5.8,��
2019/06/12,08:00,0.728,1.034,0.719,1.309,0.946,0.421,0.738,0.702,�k�k��,5.9,��
2019/06/12,08:10,0.724,1.035,0.718,1.309,0.948,0.420,0.740,0.702,�k�k��,5.2,��
2019/06/12,08:20,0.726,1.035,0.719,1.307,0.946,0.422,0.741,0.703,�k�k��,4.7,��
2019/06/12,08:30,0.724,1.034,0.721,1.306,0.948,0.422,0.740,0.702,�k�k��,5.0,��
2019/06/12,08:40,0.725,1.035,0.719,1.309,0.949,0.422,0.740,0.702,�k�k��,5.1,��
2019/06/12,08:50,0.726,1.036,0.723,1.310,0.947,0.424,0.741,0.702,�k,3.8,��
2019/06/12,09:00,0.727,1.036,0.720,1.309,0.948,0.421,0.741,0.704,�k,5.9,��
2019/06/12,09:10,0.727,1.034,0.720,1.309,0.949,0.422,0.739,0.704,�k,3.9,��
2019/06/12,09:20,0.728,1.034,0.721,1.312,0.952,0.422,0.740,0.704,�k�k��,5.5,��
2019/06/12,09:30,0.726,1.037,0.720,1.311,0.949,0.421,0.741,0.703,�k�k��,6.6,��
2019/06/12,09:40,0.726,1.033,0.721,1.310,0.949,0.421,0.742,0.707,�k�k��,6.1,��
2019/06/12,09:50,0.727,1.038,0.722,1.312,0.950,0.422,0.741,0.703,�k�k��,6.3,��
2019/06/12,10:00,0.727,1.037,0.719,1.312,0.950,0.422,0.741,0.702,�k,5.1,��
2019/06/12,10:10,0.727,1.036,0.719,1.311,0.951,0.421,0.743,0.704,�k,6.7,��
2019/06/12,10:20,0.729,1.038,0.720,1.314,0.950,0.421,0.743,0.703,�k�k��,8.1,��
2019/06/12,10:30,0.731,1.039,0.720,1.313,0.950,0.423,0.742,0.703,�k,8.8,��
2019/06/12,10:40,0.728,1.038,0.719,1.312,0.953,0.422,0.741,0.702,�k�k��,7.8,��
2019/06/12,10:50,0.729,1.038,0.720,1.312,0.953,0.424,0.741,0.703,�k�k��,6.8,��
2019/06/12,11:00,0.729,1.041,0.721,1.314,0.952,0.422,0.742,0.704,�k�k��,6.2,��
2019/06/12,11:10,0.730,1.042,0.720,1.312,0.953,0.422,0.742,0.707,�k�k��,5.8,��
2019/06/12,11:20,0.731,1.037,0.723,1.311,0.956,0.423,0.743,0.703,�k�k��,5.5,��
2019/06/12,11:30,0.731,1.043,0.722,1.313,0.955,0.424,0.743,0.705,�k�k��,5.7,��
2019/06/12,11:40,0.730,1.043,0.722,1.311,0.957,0.423,0.741,0.704,�k�k��,6.0,��
2019/06/12,11:50,0.732,1.044,0.723,1.311,0.956,0.424,0.742,0.706,�k�k��,6.2,��
2019/06/12,12:00,0.730,1.042,0.723,1.313,0.955,0.423,0.742,0.706,�k�k��,6.4,��
2019/06/12,12:10,0.732,1.046,0.724,1.314,0.957,0.424,0.742,0.704,�k�k��,8.2,��
2019/06/12,12:20,0.733,1.048,0.722,1.314,0.958,0.424,0.743,0.706,�k�k��,8.2,��
2019/06/12,12:30,0.733,1.047,0.723,1.315,0.956,0.424,0.743,0.707,�k�k��,7.7,��
2019/06/12,12:40,0.732,1.049,0.725,1.315,0.958,0.424,0.744,0.705,�k��,6.3,��
2019/06/12,12:50,0.735,1.048,0.722,1.314,0.960,0.424,0.742,0.704,�k�k��,6.1,��
2019/06/12,13:00,0.732,1.047,0.724,1.313,0.959,0.424,0.745,0.706,�k�k��,5.7,��
2019/06/12,13:10,0.734,1.047,0.724,1.314,0.960,0.425,0.743,0.705,�k�k��,5.5,��
2019/06/12,13:20,0.733,1.048,0.725,1.316,0.958,0.424,0.745,0.705,�k�k��,5.3,��
2019/06/12,13:30,0.732,1.047,0.723,1.315,0.952,0.424,0.745,0.706,�k,4.7,��
2019/06/12,13:40,0.735,1.051,0.725,1.315,0.953,0.425,0.744,0.707,�k�k��,3.8,��
2019/06/12,13:50,0.733,1.049,0.725,1.310,0.952,0.426,0.745,0.705,�k��,4.9,��
2019/06/12,14:00,0.735,1.050,0.727,1.311,0.952,0.426,0.744,0.705,�k��,5.5,��
2019/06/12,14:10,0.733,1.050,0.719,1.312,0.954,0.425,0.742,0.706,�k��,5.6,��
2019/06/12,14:20,0.732,1.049,0.718,1.312,0.954,0.426,0.742,0.706,���k��,5.1,��
2019/06/12,14:30,0.734,1.053,0.719,1.311,0.955,0.425,0.744,0.706,���k��,5.3,��
2019/06/12,14:40,0.736,1.050,0.720,1.313,0.956,0.425,0.744,0.705,�k��,5.7,��
2019/06/12,14:50,0.734,1.052,0.720,1.309,0.954,0.426,0.741,0.705,���k��,5.0,��
2019/06/12,15:00,0.733,1.054,0.720,1.309,0.955,0.424,0.742,0.705,�k��,4.7,��
2019/06/12,15:10,0.735,1.053,0.719,1.309,0.955,0.426,0.744,0.707,�k��,4.2,��
2019/06/12,15:20,0.734,1.054,0.719,1.313,0.955,0.426,0.744,0.705,�k��,4.4,��
2019/06/12,15:30,0.735,1.054,0.722,1.310,0.957,0.425,0.742,0.705,�k��,3.9,��
2019/06/12,15:40,0.733,1.053,0.719,1.312,0.955,0.426,0.744,0.706,��,3.4,��
2019/06/12,15:50,0.734,1.053,0.720,1.311,0.955,0.426,0.744,0.706,�k��,3.2,��
2019/06/12,16:00,0.736,1.054,0.718,1.313,0.957,0.426,0.744,0.707,�k��,3.4,��
2019/06/12,16:10,0.734,1.054,0.719,1.313,0.955,0.426,0.744,0.705,�k��,2.9,��
2019/06/12,16:20,0.734,1.057,0.720,1.313,0.955,0.426,0.745,0.707,�k��,2.9,��
2019/06/12,16:30,0.734,1.057,0.718,1.315,0.956,0.425,0.744,0.706,�k�k��,2.3,��
2019/06/12,16:40,0.733,1.054,0.722,1.311,0.956,0.426,0.745,0.707,�k�k��,2.6,��
2019/06/12,16:50,0.732,1.053,0.719,1.314,0.955,0.425,0.746,0.705,�k��,3.0,��
2019/06/12,17:00,0.735,1.055,0.722,1.313,0.959,0.427,0.745,0.706,�k�k��,3.5,��
2019/06/12,17:10,0.732,1.054,0.722,1.315,0.954,0.427,0.745,0.706,�k�k��,3.7,��
2019/06/12,17:20,0.734,1.056,0.722,1.312,0.955,0.426,0.744,0.708,�k�k��,3.6,��
2019/06/12,17:30,0.736,1.059,0.720,1.315,0.955,0.427,0.744,0.705,�k��,3.1,��
2019/06/12,17:40,0.734,1.059,0.721,1.314,0.955,0.427,0.744,0.707,�k��,2.5,��
2019/06/12,17:50,0.736,1.061,0.722,1.313,0.955,0.428,0.745,0.707,�k�k��,2.2,��
2019/06/12,18:00,0.735,1.058,0.721,1.314,0.956,0.427,0.745,0.706,�k�k��,2.6,��
2019/06/12,18:10,0.735,1.060,0.719,1.314,0.958,0.428,0.745,0.708,�k�k��,2.0,��
2019/06/12,18:20,0.736,1.061,0.722,1.314,0.957,0.427,0.743,0.708,�k�k��,2.0,��
2019/06/12,18:30,0.738,1.061,0.719,1.315,0.957,0.428,0.742,0.706,�k,1.5,��
2019/06/12,18:40,0.739,1.061,0.721,1.316,0.958,0.426,0.746,0.708,�k,1.5,��
2019/06/12,18:50,0.738,1.060,0.721,1.317,0.958,0.427,0.744,0.709,�k,1.4,��
2019/06/12,19:00,0.738,1.057,0.723,1.318,0.959,0.428,0.744,0.708,�k�k��,1.7,��
2019/06/12,19:10,0.736,1.064,0.726,1.317,0.960,0.426,0.745,0.710,�k,2.0,��
2019/06/12,19:20,0.738,1.062,0.724,1.316,0.959,0.427,0.743,0.709,�k,2.9,��
2019/06/12,19:30,0.737,1.060,0.722,1.321,0.958,0.429,0.744,0.709,�k,2.9,��
2019/06/12,19:40,0.738,1.059,0.723,1.317,0.960,0.426,0.745,0.709,�k,3.2,��
2019/06/12,19:50,0.738,1.061,0.723,1.318,0.960,0.427,0.744,0.709,�k,3.0,��
2019/06/12,20:00,0.738,1.059,0.724,1.318,0.959,0.427,0.745,0.710,�k,3.7,��
2019/06/12,20:10,0.736,1.058,0.724,1.320,0.959,0.427,0.746,0.710,�k,4.2,��
2019/06/12,20:20,0.737,1.060,0.723,1.319,0.959,0.427,0.745,0.710,�k,4.2,��
2019/06/12,20:30,0.738,1.060,0.723,1.319,0.960,0.427,0.746,0.708,�k�k��,3.8,��
2019/06/12,20:40,0.738,1.058,0.726,1.316,0.959,0.427,0.744,0.708,�k�k��,3.9,��
2019/06/12,20:50,0.737,1.058,0.724,1.318,0.960,0.428,0.746,0.707,�k,3.1,��
2019/06/12,21:00,0.736,1.060,0.723,1.321,0.959,0.427,0.745,0.708,�k�k��,3.2,��
2019/06/12,21:10,0.736,1.058,0.723,1.317,0.958,0.427,0.746,0.708,�k�k��,3.7,��
2019/06/12,21:20,0.737,1.058,0.724,1.317,0.957,0.427,0.745,0.708,�k�k��,3.3,��
2019/06/12,21:30,0.736,1.059,0.725,1.319,0.959,0.426,0.745,0.709,�k�k��,3.6,��
2019/06/12,21:40,0.736,1.058,0.724,1.319,0.962,0.427,0.744,0.708,�k�k��,2.9,��
2019/06/12,21:50,0.736,1.059,0.723,1.317,0.960,0.427,0.745,0.709,�k,2.5,��
2019/06/12,22:00,0.738,1.061,0.724,1.318,0.959,0.427,0.746,0.707,�k,2.6,��
2019/06/12,22:10,0.737,1.058,0.723,1.320,0.959,0.429,0.746,0.708,�k,3.1,��
2019/06/12,22:20,0.737,1.060,0.725,1.321,0.960,0.427,0.745,0.708,�k,3.2,��
2019/06/12,22:30,0.736,1.059,0.724,1.319,0.958,0.427,0.747,0.708,�k�k��,3.3,��
2019/06/12,22:40,0.738,1.059,0.724,1.319,0.958,0.428,0.745,0.708,�k�k��,3.9,��
2019/06/12,22:50,0.738,1.061,0.725,1.320,0.959,0.428,0.746,0.709,�k�k��,3.5,��
2019/06/12,23:00,0.736,1.062,0.723,1.320,0.962,0.427,0.746,0.707,�k�k��,3.0,��
2019/06/12,23:10,0.737,1.059,0.722,1.320,0.960,0.427,0.746,0.709,�k�k��,3.1,��
2019/06/12,23:20,0.735,1.060,0.724,1.320,0.960,0.427,0.745,0.710,�k��,3.5,��
2019/06/12,23:30,0.736,1.059,0.724,1.321,0.961,0.429,0.744,0.709,�k��,3.3,��
2019/06/12,23:40,0.737,1.059,0.722,1.319,0.958,0.429,0.746,0.708,�k��,3.4,��
2019/06/12,23:50,0.735,1.061,0.724,1.320,0.959,0.427,0.743,0.710,�k��,3.1,��
